Regional Weather Roundup
Issued by NWS Albany, NY

Home | Current Version | Previous Version | Graphics & Text | Print | Product List | Glossary Off
Versions: 1 2 3 4 5 6 7 8 9 10 11 12 13 14 15 16 17 18 19 20 21 22 23 24 25 26 27

000
ASUS41 KALY 230410
RWRALY

NEW YORK STATE HOURLY WEATHER ROUNDUP
NATIONAL WEATHER SERVICE ALBANY NY
1100 PM EST WED FEB 22 2017

NOTE: "FAIR" INDICATES FEW OR NO CLOUDS BELOW 12,000 FEET WITH NO
SIGNIFICANT WEATHER AND/OR NO OBSTRUCTIONS TO VISIBILITY.

NYZ032-033-038>043-046>054-057>066-NYZ062>081-082-084-230500-
EAST


CITY           SKY/WX    TMP DP  RH WIND       PRES   REMARKS
ALBANY         PTCLDY    47  35  63 S7        29.86F
GLENS FALLS    CLEAR     37  31  78 CALM      29.86S
POUGHKEEPSIE   CLEAR     36  34  92 CALM      29.88F
NEWBURGH       PTCLDY    41  37  87 CALM      29.88F
MONTGOMERY     CLEAR     35  32  88 N5        29.87F WCI  31
WHITE PLAINS   CLEAR     39  35  86 NW5       29.88F
ISLIP          FOG       42  42 100 SW3       29.90F VSB 1/4
NEW YORK CITY  CLOUDY    49  42  77 CALM      29.88F
CENTRAL PARK   CLOUDY    51  42  71 CALM      29.91F
$$

NYZ005>009-017-018-044>046-055-056-230500-
CENTRAL


CITY           SKY/WX    TMP DP  RH WIND       PRES   REMARKS
FULTON         CLOUDY    46  37  71 CALM      29.80F
SYRACUSE       MOCLDY    49  40  71 CALM      29.80F
ROME           CLOUDY    43  36  76 SE6       29.84F
ELMIRA         PTCLDY    42  40  92 CALM      29.84S FOG
BINGHAMTON     CLOUDY    47  40  76 S6        29.85S
MONTICELLO     CLEAR     39  36  87 N3        29.89S
$$

NYZ026>034-041>043-087-230500-
NORTH


CITY           SKY/WX    TMP DP  RH WIND       PRES   REMARKS
WATERTOWN      CLOUDY    53  40  61 S6        29.77F
FORT DRUM      NOT AVBL
OGDENSBURG     MOCLDY    41  35  80 CALM      29.77F
MASSENA        CLOUDY    38  35  89 NE3       29.80S
SARANAC LAKE   CLOUDY    37  32  82 SW5       29.79F WCI  33
PLATTSBURGH    CLOUDY    37  31  78 SE3       29.80F
$$

NYZ001>004-010>016-019>021-085-230500-
WEST


CITY           SKY/WX    TMP DP  RH WIND       PRES   REMARKS
NIAGARA FALLS  PTCLDY    55  49  80 S9        29.74F
BUFFALO        CLOUDY    56  50  80 SW12      29.76F
DUNKIRK        CLOUDY    55  51  86 S8        29.78F
JAMESTOWN        N/A     52  48  87 S6        29.80F
WELLSVILLE     PTCLDY    53  48  83 CALM      29.85S
ROCHESTER      PTCLDY    55  50  83 S6        29.78F
PENN YAN       CLOUDY    53  46  77 SW7       29.82F
$$

             KEY
       WCI = WIND CHILL INDEX
       VSB = VISIBILITY
       HX  = HEAT INDEX
$$




USA.gov is the U.S. government's official web portal to all federal, state and local government web resources and services.